SCP
0 -0 -0 -0 -0 -0 -0 -0 -0 -0 -0 -0 -0 -1 -0 -0 -0 -0 -0 -0 -0 -0 -0 -0 -0 -0 -0 -0 -0 -0 -0 -0 -0 -0 -0 -0 0 0 0 0 0 0 -0
-0 -0 -0 -0 -0 -0 -0 -0 -0 -0 -0 -0 -0 -0 -0 -0 -0 -0 -0 -0 -0 -0 -0 0 0 -0 -0 -0 -0 -0 -0 -0 -0 -0 -0 -0 -0 -0 0 0 0 0 -0
-0 -0 -0 -0 -0 -0 -0 -0 -0 -0 -0 -0 -0 -0 -0 -0 -0 -0 -0 -0 -0 -0 0 0 0 0 -0 -0 -0 -0 -0 -0 -0 -0 -0 0 -0 0 -0 -0 0 -0 -0
-1 -0 -0 -0 -0 -0 -0 -0 -0 -0 -0 -0 -0 -0 -0 0 -0 -0 -0 -0 -0 -0 0 -0 0 0 0 0 0 -0 -0 -0 -0 -0 -0 -0 0 -0 -0 -0 0 -0 0
-0 -0 -0 -0 -0 -0 -0 -0 -0 -0 -0 -0 -0 -0 -0 -0 -0 -0 -0 -0 0 -0 -0 -0 -0 0 0 0 0 -0 -0 -0 -0 -0 -0 -0 0 -0 -0 -0 0 0 0
-0 -0 -0 -1 -0 -0 -0 -0 -0 -0 -0 -0 -0 0 0 0 0 0 0 0 0 -0 -0 -0 -0 -0 0 0 0 -0 -0 -0 -0 -0 0 -0 0 -0 -0 -0 -0 -0 0
-0 -0 -0 -1 -0 -0 -0 -0 -0 -0 -0 -0 -0 0 0 0 0 0 0 -0 -0 -0 -0 -0 -0 -0 -0 0 0 0 0 -0 -0 0 0 -0 -0 -0 -0 -0 -0 -0 0
-0 -0 -0 -0 -1 -0 -0 -0 -0 -0 -0 -0 -0 -0 0 0 0 -0 0 -0 -0 -0 -0 -0 -0 -0 -0 -0 0 0 -0 0 -0 -0 -0 -0 -0 -0 -0 -0 -0 -0 -0
-0 0 -0 -0 -0 -0 -0 -0 -0 -0 -0 -0 -0 -0 -0 -0 -0 -0 -0 0 0 0 -0 -0 -0 -0 -0 -0 0 0 0 0 0 0 0 0 -0 -0 -0 -0 -0 -0 -0
-0 -0 -0 0 0 0 0 -0 -0 -0 -0 -0 -0 -0 -0 -0 0 -0 0 0 0 0 -0 -0 -0 -0 -0 -0 0 0 0 0 0 0 -0 0 -0 -0 -0 -0 -0 -0 -0
-0 -0 -0 0 0 0 1 0 0 -0 -0 -0 -0 -0 -0 0 -0 -0 0 -0 0 0 0 -0 -0 -0 -0 -0 0 0 0 0 0 0 0 -0 -0 -0 -0 -0 -0 -0 -0
-0 -0 -0 -0 0 0 1 1 1 0 0 0 0 0 0 0 0 -0 -0 -0 -0 -0 -0 -0 -0 -0 -0 0 0 0 0 0 0 -0 0 -0 -0 -0 -0 -0 -0 -0 -0
-0 -0 -0 -0 -0 0 0 0 0 0 0 0 0 0 0 0 0 0 0 0 0 0 0 0 0 0 0 0 0 0 0 0 0 0 0 -0 -0 -0 -0 -0 -0 -0 -0
-0 -0 -0 -0 0 0 0 0 0 0 0 0 0 0 0 0 0 0 0 0 0 0 0 0 0 0 0 0 0 0 0 0 0 0 0 -0 -0 -0 -0 -0 -0 -0 -0
-0 0 0 0 0 0 0 0 0 0 0 0 0 0 0 0 0 0 0 0 0 0 0 0 0 0 0 0 -0 0 0 0 0 0 0 -0 0 -0 -0 -0 -0 -0 -0
0 0 0 0 0 0 0 0 0 0 0 0 0 0 0 0 0 0 0 0 0 0 0 0 0 0 0 0 0 0 0 0 0 0 0 0 0 0 0 -0 -0 -0 -0
0 0 0 0 0 -0 -0 -0 -0 0 0 0 0 0 0 0 0 0 0 0 0 0 0 0 0 0 0 0 0 0 0 0 0 0 0 0 0 0 0 0 0 0 0
-0 -0 0 0 0 0 0 0 0 0 0 0 0 0 0 0 0 0 0 0 0 0 0 0 0 0 0 0 0 0 0 0 0 0 0 0 0 0 0 0 0 0 0
-0 -0 0 0 0 0 0 0 0 0 0 0 0 0 0 0 0 0 0 0 0 0 0 0 0 0 0 0 0 0 0 0 0 0 0 0 0 0 0 0 0 0 -0
-0 -0 0 0 0 1 0 0 0 0 0 0 0 0 0 0 0 0 0 0 0 0 0 0 0 0 0 0 0 0 0 0 0 0 0 0 0 0 0 0 0 0 0
0 0 -0 0 1 1 0 0 0 0 0 0 0 0 0 0 0 0 0 0 0 0 0 0 0 0 0 0 0 0 0 0 0 0 0 0 0 0 0 0 0 0 0
0 0 0 0 0 0 0 0 0 0 0 0 0 0 0 0 0 0 0 0 0 0 0 0 0 0 0 0 0 0 0 0 0 0 0 0 0 0 0 0 0 0 0
-0 -0 0 0 0 0 0 0 0 0 0 0 0 0 0 0 0 0 0 0 0 0 0 0 0 0 0 0 0 0 0 0 0 0 0 0 0 0 0 0 0 0 0
-0 -0 0 0 0 0 0 0 0 0 0 0 0 0 -0 0 0 0 0 0 0 0 0 0 0 0 0 0 0 0 0 0 0 0 0 0 0 0 0 0 0 0 0
-0 -0 0 0 0 0 0 0 0 0 0 0 0 -0 -0 -0 0 0 0 0 0 0 0 0 0 0 0 0 0 0 0 0 0 0 0 0 0 0 0 0 0 0 0
-0 0 0 0 0 0 0 0 0 0 0 0 0 0 -0 -0 0 -0 -0 0 0 0 0 0 0 0 0 0 0 0 0 0 0 0 0 0 0 0 0 0 0 0 0
Wind_Speed_500mb
51 51 47 48 48 48 46 44 43 42 39 36 34 34 35 35 33 32 31 31 30 29 27 23 22 22 19 15 14 14 12 22 24 26 28 30 31 31 28 26 28 32 35
58 56 51 50 48 45 44 41 40 39 39 36 34 33 33 32 32 30 29 29 28 27 25 24 21 20 15 13 12 15 18 24 27 27 30 33 31 32 27 22 26 31 33
51 54 51 47 47 44 42 39 38 37 35 35 33 30 31 27 28 28 27 27 25 26 26 26 25 20 16 15 19 20 24 29 29 27 29 28 29 25 23 21 27 31 30
49 50 51 49 45 41 38 36 34 33 31 31 32 29 26 25 26 25 22 21 22 22 24 24 23 20 16 20 24 26 30 31 28 26 25 23 24 24 18 21 27 29 29
51 49 50 49 45 41 36 34 33 31 28 26 27 28 25 22 21 22 21 17 15 18 19 20 19 18 17 20 25 29 32 30 34 30 25 16 17 19 17 23 26 27 29
46 50 48 49 46 40 35 33 31 29 26 23 22 23 23 22 19 18 16 16 14 13 15 16 17 17 18 21 27 30 32 35 32 23 21 14 12 15 19 24 25 25 28
44 47 50 47 43 38 32 30 29 27 24 21 20 20 20 20 18 17 15 14 13 11 12 13 15 18 21 24 27 31 34 38 31 21 20 16 12 14 20 24 23 24 25
45 44 42 40 39 36 32 28 27 25 23 20 19 17 17 17 14 14 14 14 11 11 11 12 14 16 22 26 29 35 39 36 29 25 22 13 9 14 20 22 20 22 23
41 40 41 38 35 35 32 29 27 25 24 21 18 17 16 14 12 11 11 9 9 9 12 12 15 15 21 24 31 37 36 32 31 27 22 18 13 14 18 20 19 19 22
39 34 33 35 34 36 35 31 28 26 25 23 21 19 18 17 14 13 12 10 8 9 11 14 13 14 18 23 30 40 40 33 34 33 26 19 17 14 17 20 21 21 22
38 30 28 28 32 34 35 32 29 28 27 27 25 22 21 16 14 12 9 9 10 11 12 13 12 15 16 19 29 41 45 38 25 32 26 21 16 15 16 19 21 23 23
39 33 25 24 33 35 35 35 33 31 31 30 28 28 23 21 20 18 13 11 11 11 13 14 14 15 15 16 23 41 45 37 23 22 21 21 19 17 18 19 21 23 23
34 29 26 22 27 30 34 34 33 33 32 32 31 28 27 25 20 13 13 11 11 12 14 15 16 15 15 15 26 36 40 38 31 25 23 25 24 23 22 20 22 23 24
34 23 23 24 23 22 26 29 31 34 37 35 32 31 32 30 25 15 12 14 16 17 20 18 17 17 16 18 24 33 41 42 36 31 20 27 28 27 24 24 23 25 26
36 28 27 25 24 25 25 30 30 29 32 34 36 37 39 34 32 25 22 19 19 22 20 21 21 20 23 24 27 26 36 42 41 35 23 29 29 27 23 27 27 28 29
33 36 29 25 23 25 20 23 26 23 30 35 37 38 40 42 40 37 38 32 27 27 24 23 21 20 21 23 24 21 27 35 46 37 28 32 29 26 25 27 31 32 32
32 35 30 26 26 21 21 22 24 19 27 28 29 25 36 39 39 35 35 37 29 31 28 26 22 28 25 26 22 21 22 34 41 46 35 35 34 33 34 33 33 34 35
39 36 30 29 27 25 22 18 22 27 27 24 24 25 29 32 32 33 31 32 27 40 37 33 26 27 26 25 22 20 17 21 30 38 29 28 32 31 31 34 34 35 37
40 40 38 32 35 34 30 27 22 24 29 29 28 28 28 30 33 35 30 26 32 39 45 35 31 32 29 27 24 21 20 22 21 24 27 29 30 28 27 27 34 34 40
40 38 34 29 29 26 24 24 28 30 31 34 33 34 35 33 39 39 38 33 28 42 45 46 37 31 29 25 26 25 18 23 25 26 28 27 30 28 30 39 34 48 50
41 37 36 30 30 30 28 29 30 30 29 31 35 39 43 50 42 42 42 41 38 40 51 44 41 38 34 34 33 28 22 23 26 25 27 31 32 33 34 37 36 37 49
54 46 37 28 29 30 34 33 32 32 33 37 38 39 44 45 37 44 45 45 43 43 49 46 45 45 39 42 32 27 19 26 21 19 22 21 26 38 41 42 42 39 46
58 45 34 25 25 25 30 25 26 28 29 33 37 39 39 44 47 48 47 48 44 45 50 50 50 48 45 46 42 25 14 12 15 11 6 12 23 32 40 41 43 45 45
60 44 30 26 21 19 18 15 21 22 21 24 31 32 35 39 44 43 47 49 49 43 51 49 50 50 49 43 45 37 20 17 12 11 5 7 17 24 37 43 38 39 41
39 29 28 24 19 15 10 8 12 15 17 20 23 26 30 31 36 44 41 40 48 48 48 53 52 52 53 51 52 48 43 29 20 14 5 16 26 26 27 32 34 34 37
34 33 35 25 15 4 1 3 9 16 18 14 11 16 26 20 21 31 33 35 36 44 46 53 53 48 47 53 52 49 44 39 31 21 16 20 34 29 19 22 27 29 30
Wind_Direction_500mb
173 163 158 151 147 148 144 142 136 131 129 124 124 124 123 125 129 132 134 137 143 146 148 143 137 127 129 130 130 137 143 137 134 127 126 123 120 118 111 117 122 117 117
163 164 163 154 151 147 147 144 139 134 131 127 124 125 126 128 130 130 133 139 145 148 151 151 144 132 128 143 144 138 140 142 137 131 133 129 122 118 104 117 119 121 119
165 164 164 160 155 150 151 148 145 142 138 134 131 131 126 126 131 130 130 129 133 137 146 151 146 140 129 132 136 134 138 140 137 137 140 134 128 116 115 114 120 127 120
164 164 167 166 159 152 152 153 150 148 145 141 135 134 132 132 130 134 131 128 132 139 143 147 147 142 130 124 135 137 139 139 135 136 138 133 130 131 125 126 131 128 124
164 166 170 166 164 160 158 158 157 156 151 147 140 137 137 137 133 139 134 132 136 141 147 152 151 146 139 132 142 146 144 146 140 128 134 121 140 137 134 135 138 132 134
168 167 170 170 167 164 164 159 158 160 158 151 145 142 140 141 136 141 140 136 138 147 153 163 164 157 150 145 150 153 153 154 147 137 135 139 140 147 144 143 142 136 138
172 170 171 174 168 166 164 162 162 162 163 161 155 148 144 149 147 147 148 145 145 151 156 164 172 160 159 157 156 158 158 156 151 157 154 140 145 161 153 150 144 144 141
161 164 170 177 175 171 166 167 167 168 170 171 163 155 152 153 154 157 161 157 158 156 163 170 172 162 165 161 165 168 158 160 160 167 160 167 165 167 159 156 154 153 148
155 157 168 181 183 179 174 173 173 175 178 178 172 169 162 160 159 168 170 170 173 177 169 183 173 175 173 167 172 179 168 169 173 172 174 182 178 179 176 172 167 163 158
168 170 173 179 189 192 186 182 180 181 183 182 185 182 177 180 174 178 187 181 201 208 194 189 188 180 175 171 182 183 177 170 171 180 180 180 183 185 191 182 175 170 168
169 174 184 187 190 196 198 190 185 188 193 192 187 191 194 186 180 182 201 215 205 211 215 206 204 187 178 180 186 189 186 181 192 189 187 188 201 190 200 191 183 178 177
174 174 185 188 193 191 200 198 195 195 199 201 194 200 197 188 191 186 201 219 224 213 220 216 204 204 193 179 187 190 192 183 183 185 194 192 188 199 198 203 196 190 185
179 181 177 169 182 199 202 199 199 203 206 207 206 207 202 200 198 193 206 216 223 240 228 229 219 211 205 191 183 190 198 194 195 189 203 201 217 222 210 205 212 203 196
193 196 194 184 182 189 199 207 211 209 212 208 208 207 214 208 195 205 198 217 234 246 234 223 224 215 203 182 176 193 201 204 210 203 220 211 216 221 215 213 216 213 206
211 217 205 195 198 205 209 209 214 220 220 220 218 215 218 209 211 229 236 251 244 241 235 226 214 219 215 194 188 186 207 214 215 225 224 206 210 216 222 217 220 219 217
205 207 201 199 200 217 217 205 210 221 218 222 219 225 227 224 235 242 250 250 260 232 233 231 223 221 218 213 215 202 205 214 221 230 225 226 216 245 236 222 225 227 224
191 199 196 195 206 214 213 207 216 229 217 230 228 234 247 237 242 238 238 241 254 225 226 228 218 215 217 219 219 223 215 217 227 232 234 235 243 246 233 227 229 231 231
197 202 206 209 216 217 218 218 215 221 230 237 234 242 258 245 237 241 241 241 242 225 231 232 227 219 216 217 212 213 215 208 218 225 239 239 238 231 236 235 232 236 237
205 210 209 212 219 218 221 221 233 240 246 247 240 242 245 251 251 239 247 252 242 234 230 226 227 223 218 219 209 207 211 225 220 227 233 240 236 243 233 237 226 233 241
207 209 211 214 212 215 224 235 237 239 251 252 252 251 248 256 250 244 242 247 251 236 229 224 223 227 221 217 214 211 223 222 228 235 248 246 242 240 241 234 238 232 236
213 207 211 221 226 228 234 237 247 259 258 255 256 256 256 255 247 241 242 244 242 240 230 225 226 223 217 211 216 218 224 232 232 236 238 241 251 252 251 245 238 260 239
212 209 214 223 225 234 247 256 259 264 267 265 262 257 261 252 244 241 243 245 246 238 232 228 219 221 221 218 218 223 213 220 227 228 239 246 264 257 257 261 260 259 243
208 206 208 218 229 234 247 255 265 270 273 273 267 262 259 252 258 254 247 243 244 241 232 228 221 220 220 216 209 205 194 195 190 188 218 254 264 259 260 259 259 249 248
195 194 206 212 208 225 245 259 266 275 281 279 277 269 260 257 256 249 244 241 238 238 230 226 224 221 218 216 212 213 217 189 193 180 180 315 304 270 259 256 251 242 244
168 181 204 206 198 214 258 290 301 312 311 301 284 275 274 264 253 238 239 234 232 234 230 224 223 223 219 218 216 218 223 218 220 221 197 337 297 301 275 253 241 238 240
166 184 190 185 182 189 102 269 335 333 334 322 302 298 295 253 246 225 231 236 234 225 227 220 222 225 225 222 222 226 224 215 219 219 201 224 283 278 288 240 226 227 235
Wind_Speed_850mb
51 51 47 48 48 48 46 44 43 42 39 36 34 34 35 35 33 32 31 31 30 29 27 23 22 22 19 15 14 14 12 22 24 26 28 30 31 31 28 26 28 32 35
58 56 51 50 48 45 44 41 40 39 39 36 34 33 33 32 32 30 29 29 28 27 25 24 21 20 15 13 12 15 18 24 27 27 30 33 31 32 27 22 26 31 33
51 54 51 47 47 44 42 39 38 37 35 35 33 30 31 27 28 28 27 27 25 26 26 26 25 20 16 15 19 20 24 29 29 27 29 28 29 25 23 21 27 31 30
49 50 51 49 45 41 38 36 34 33 31 31 32 29 26 25 26 25 22 21 22 22 24 24 23 20 16 20 24 26 30 31 28 26 25 23 24 24 18 21 27 29 29
51 49 50 49 45 41 36 34 33 31 28 26 27 28 25 22 21 22 21 17 15 18 19 20 19 18 17 20 25 29 32 30 34 30 25 16 17 19 17 23 26 27 29
46 50 48 49 46 40 35 33 31 29 26 23 22 23 23 22 19 18 16 16 14 13 15 16 17 17 18 21 27 30 32 35 32 23 21 14 12 15 19 24 25 25 28
44 47 50 47 43 38 32 30 29 27 24 21 20 20 20 20 18 17 15 14 13 11 12 13 15 18 21 24 27 31 34 38 31 21 20 16 12 14 20 24 23 24 25
45 44 42 40 39 36 32 28 27 25 23 20 19 17 17 17 14 14 14 14 11 11 11 12 14 16 22 26 29 35 39 36 29 25 22 13 9 14 20 22 20 22 23
41 40 41 38 35 35 32 29 27 25 24 21 18 17 16 14 12 11 11 9 9 9 12 12 15 15 21 24 31 37 36 32 31 27 22 18 13 14 18 20 19 19 22
39 34 33 35 34 36 35 31 28 26 25 23 21 19 18 17 14 13 12 10 8 9 11 14 13 14 18 23 30 40 40 33 34 33 26 19 17 14 17 20 21 21 22
38 30 28 28 32 34 35 32 29 28 27 27 25 22 21 16 14 12 9 9 10 11 12 13 12 15 16 19 29 41 45 38 25 32 26 21 16 15 16 19 21 23 23
39 33 25 24 33 35 35 35 33 31 31 30 28 28 23 21 20 18 13 11 11 11 13 14 14 15 15 16 23 41 45 37 23 22 21 21 19 17 18 19 21 23 23
34 29 26 22 27 30 34 34 33 33 32 32 31 28 27 25 20 13 13 11 11 12 14 15 16 15 15 15 26 36 40 38 31 25 23 25 24 23 22 20 22 23 24
34 23 23 24 23 22 26 29 31 34 37 35 32 31 32 30 25 15 12 14 16 17 20 18 17 17 16 18 24 33 41 42 36 31 20 27 28 27 24 24 23 25 26
36 28 27 25 24 25 25 30 30 29 32 34 36 37 39 34 32 25 22 19 19 22 20 21 21 20 23 24 27 26 36 42 41 35 23 29 29 27 23 27 27 28 29
33 36 29 25 23 25 20 23 26 23 30 35 37 38 40 42 40 37 38 32 27 27 24 23 21 20 21 23 24 21 27 35 46 37 28 32 29 26 25 27 31 32 32
32 35 30 26 26 21 21 22 24 19 27 28 29 25 36 39 39 35 35 37 29 31 28 26 22 28 25 26 22 21 22 34 41 46 35 35 34 33 34 33 33 34 35
39 36 30 29 27 25 22 18 22 27 27 24 24 25 29 32 32 33 31 32 27 40 37 33 26 27 26 25 22 20 17 21 30 38 29 28 32 31 31 34 34 35 37
40 40 38 32 35 34 30 27 22 24 29 29 28 28 28 30 33 35 30 26 32 39 45 35 31 32 29 27 24 21 20 22 21 24 27 29 30 28 27 27 34 34 40
40 38 34 29 29 26 24 24 28 30 31 34 33 34 35 33 39 39 38 33 28 42 45 46 37 31 29 25 26 25 18 23 25 26 28 27 30 28 30 39 34 48 50
41 37 36 30 30 30 28 29 30 30 29 31 35 39 43 50 42 42 42 41 38 40 51 44 41 38 34 34 33 28 22 23 26 25 27 31 32 33 34 37 36 37 49
54 46 37 28 29 30 34 33 32 32 33 37 38 39 44 45 37 44 45 45 43 43 49 46 45 45 39 42 32 27 19 26 21 19 22 21 26 38 41 42 42 39 46
58 45 34 25 25 25 30 25 26 28 29 33 37 39 39 44 47 48 47 48 44 45 50 50 50 48 45 46 42 25 14 12 15 11 6 12 23 32 40 41 43 45 45
60 44 30 26 21 19 18 15 21 22 21 24 31 32 35 39 44 43 47 49 49 43 51 49 50 50 49 43 45 37 20 17 12 11 5 7 17 24 37 43 38 39 41
39 29 28 24 19 15 10 8 12 15 17 20 23 26 30 31 36 44 41 40 48 48 48 53 52 52 53 51 52 48 43 29 20 14 5 16 26 26 27 32 34 34 37
34 33 35 25 15 4 1 3 9 16 18 14 11 16 26 20 21 31 33 35 36 44 46 53 53 48 47 53 52 49 44 39 31 21 16 20 34 29 19 22 27 29 30
Wind_Direction_850mb
173 163 158 151 147 148 144 142 136 131 129 124 124 124 123 125 129 132 134 137 143 146 148 143 137 127 129 130 130 137 143 137 134 127 126 123 120 118 111 117 122 117 117
163 164 163 154 151 147 147 144 139 134 131 127 124 125 126 128 130 130 133 139 145 148 151 151 144 132 128 143 144 138 140 142 137 131 133 129 122 118 104 117 119 121 119
165 164 164 160 155 150 151 148 145 142 138 134 131 131 126 126 131 130 130 129 133 137 146 151 146 140 129 132 136 134 138 140 137 137 140 134 128 116 115 114 120 127 120
164 164 167 166 159 152 152 153 150 148 145 141 135 134 132 132 130 134 131 128 132 139 143 147 147 142 130 124 135 137 139 139 135 136 138 133 130 131 125 126 131 128 124
164 166 170 166 164 160 158 158 157 156 151 147 140 137 137 137 133 139 134 132 136 141 147 152 151 146 139 132 142 146 144 146 140 128 134 121 140 137 134 135 138 132 134
168 167 170 170 167 164 164 159 158 160 158 151 145 142 140 141 136 141 140 136 138 147 153 163 164 157 150 145 150 153 153 154 147 137 135 139 140 147 144 143 142 136 138
172 170 171 174 168 166 164 162 162 162 163 161 155 148 144 149 147 147 148 145 145 151 156 164 172 160 159 157 156 158 158 156 151 157 154 140 145 161 153 150 144 144 141
161 164 170 177 175 171 166 167 167 168 170 171 163 155 152 153 154 157 161 157 158 156 163 170 172 162 165 161 165 168 158 160 160 167 160 167 165 167 159 156 154 153 148
155 157 168 181 183 179 174 173 173 175 178 178 172 169 162 160 159 168 170 170 173 177 169 183 173 175 173 167 172 179 168 169 173 172 174 182 178 179 176 172 167 163 158
168 170 173 179 189 192 186 182 180 181 183 182 185 182 177 180 174 178 187 181 201 208 194 189 188 180 175 171 182 183 177 170 171 180 180 180 183 185 191 182 175 170 168
169 174 184 187 190 196 198 190 185 188 193 192 187 191 194 186 180 182 201 215 205 211 215 206 204 187 178 180 186 189 186 181 192 189 187 188 201 190 200 191 183 178 177
174 174 185 188 193 191 200 198 195 195 199 201 194 200 197 188 191 186 201 219 224 213 220 216 204 204 193 179 187 190 192 183 183 185 194 192 188 199 198 203 196 190 185
179 181 177 169 182 199 202 199 199 203 206 207 206 207 202 200 198 193 206 216 223 240 228 229 219 211 205 191 183 190 198 194 195 189 203 201 217 222 210 205 212 203 196
193 196 194 184 182 189 199 207 211 209 212 208 208 207 214 208 195 205 198 217 234 246 234 223 224 215 203 182 176 193 201 204 210 203 220 211 216 221 215 213 216 213 206
211 217 205 195 198 205 209 209 214 220 220 220 218 215 218 209 211 229 236 251 244 241 235 226 214 219 215 194 188 186 207 214 215 225 224 206 210 216 222 217 220 219 217
205 207 201 199 200 217 217 205 210 221 218 222 219 225 227 224 235 242 250 250 260 232 233 231 223 221 218 213 215 202 205 214 221 230 225 226 216 245 236 222 225 227 224
191 199 196 195 206 214 213 207 216 229 217 230 228 234 247 237 242 238 238 241 254 225 226 228 218 215 217 219 219 223 215 217 227 232 234 235 243 246 233 227 229 231 231
197 202 206 209 216 217 218 218 215 221 230 237 234 242 258 245 237 241 241 241 242 225 231 232 227 219 216 217 212 213 215 208 218 225 239 239 238 231 236 235 232 236 237
205 210 209 212 219 218 221 221 233 240 246 247 240 242 245 251 251 239 247 252 242 234 230 226 227 223 218 219 209 207 211 225 220 227 233 240 236 243 233 237 226 233 241
207 209 211 214 212 215 224 235 237 239 251 252 252 251 248 256 250 244 242 247 251 236 229 224 223 227 221 217 214 211 223 222 228 235 248 246 242 240 241 234 238 232 236
213 207 211 221 226 228 234 237 247 259 258 255 256 256 256 255 247 241 242 244 242 240 230 225 226 223 217 211 216 218 224 232 232 236 238 241 251 252 251 245 238 260 239
212 209 214 223 225 234 247 256 259 264 267 265 262 257 261 252 244 241 243 245 246 238 232 228 219 221 221 218 218 223 213 220 227 228 239 246 264 257 257 261 260 259 243
208 206 208 218 229 234 247 255 265 270 273 273 267 262 259 252 258 254 247 243 244 241 232 228 221 220 220 216 209 205 194 195 190 188 218 254 264 259 260 259 259 249 248
195 194 206 212 208 225 245 259 266 275 281 279 277 269 260 257 256 249 244 241 238 238 230 226 224 221 218 216 212 213 217 189 193 180 180 315 304 270 259 256 251 242 244
168 181 204 206 198 214 258 290 301 312 311 301 284 275 274 264 253 238 239 234 232 234 230 224 223 223 219 218 216 218 223 218 220 221 197 337 297 301 275 253 241 238 240
166 184 190 185 182 189 102 269 335 333 334 322 302 298 295 253 246 225 231 236 234 225 227 220 222 225 225 222 222 226 224 215 219 219 201 224 283 278 288 240 226 227 235